Orbital Elements at Epoch 2459200.5 (2020-Dec-17.0) TDB
Reference: JPL 30 (heliocentric ecliptic J2000)
Element | Value | Uncertainty (1-sigma) | Units |
e | .09658817889227783 | 2.8538e-08 | |
a | 2.635021188214304 | 1.0465e-08 | au |
q | 2.380509290302118 | 7.3073e-08 | au |
i | 11.35346198393415 | 3.5964e-06 | deg |
node | 127.451761352241 | 1.6663e-05 | deg |
peri | 112.1392534436781 | 2.75e-05 | deg |
M | 102.8532655002751 | 2.0938e-05 | deg |
tp | 2458754.134954078929 (2019-Sep-27.63495408) | 9.0933e-05 | TDB |
period | 1562.336555382927 4.28 | 9.3075e-06 2.548e-08 | d yr |
n | .2304241034107816 | 1.3727e-09 | deg/d |
Q | 2.889533086126489 | 1.1476e-08 | au |
|
| | Orbit Determination Parameters
Additional Information
|